Погода в Северном Батлфорде

Канада     52°44′10″N   108°18′47″W
темп.,
°C
ветер,
м/с
пор.,
м/с
влажн.,
%
обл.,
%
осадки,
мм/ч
давл.,
гПа
погр.,
м
20 апреля, вт
вт2000:00−2св365922 0.0 1030179
03:00−3св226444 0.0 103250
06:00−4с11675 0.0 103213
09:00−1сз234938 0.0 1031725
12:00+3сз3337100 0.0 10291056
15:00+6з223121 0.0 10271155
18:00+8з332933 0.0 10241211
21:00+4юз33435 0.0 102328
21 апреля, ср
ср2100:00+2ююз354811 0.0 102267
03:00+2ююз495312 0.0 1021139
06:00+1юз485613 0.0 1019134
09:00+7юз584119 0.0 1017398
12:00+12юз67295 0.0 10131176
15:00+15юз68225 0.0 10101799
18:00+16юз57240 0.0 10072049
21:00+10ююз464310 0.0 100677
22 апреля, чт
чт2200:00+9ююз4114790 0.0 1004181
03:00+4св71184100 0.0 1007434
06:000ссв61296100 2.1 1011749
09:00−2с71396100 7.8 1015833
12:00−2с71082100 10.7 10181027
15:000ссз5878100 0.1 10181347
18:000ссз367299 0.2 10181155
21:00−3зсз2583100 0.1 101999
23 апреля, пт
пт2300:00−6с1189100 0.1 102015
03:00−8юз119394 0.0 102110
06:00−7юз1287100 0.0 102137
09:00−2з477712 0.0 1020349
12:00+1з466215 0.0 10191463
15:00+3зюз565289 0.1 10181548
18:00+3з575727 0.2 10171100
21:00−2з227794 0.0 101828
24 апреля, сб
сб2400:00−4ююз22854 0.0 101815
03:00−3юз1184100 0.0 101813
06:00−3з1185100 0.0 101813
09:00+1зсз2460100 0.0 1018425
12:00+4зсз35379 0.0 10161949
15:00+5зсз463237 0.0 10142304
18:00+5сз3532100 0.0 10132162
21:00+1ссз1145100 0.0 101310